Location: Famechon
(49.7599°N, 2.0615°E)
Time: 12:44:17
(UTC+00:00)

Lacrosse 4 Rocket - Pass Details

Date: 03 February 2023
Orbit: 535 x 608 km, 68.0° (Epoch: 21 March)

Event Time Altitude Azimuth Distance (km) Brightness Sun altitude
Rises 19:12:03 0° 331° (NNW) 2,863 5.4 -23.1°
Reaches altitude 10° 19:15:35 10° 0° (N) 1,941 4.1 -23.7°
Enters shadow 19:16:00 11° 5° (N) 1,874 4.0 -23.8°
